DW9848 Weather Reports


time (UTC)temp
F
wind
direction
speed
knots
gust
knots
rain 1hr
in
rain 24hr
in
rain mn
in
humidity
%
barometer
mb
20260506044544 55 74 0.0 2.6 0.00 0.00 0.00 76 997.1
20260506043043 55 209 0.0 3.5 0.00 0.00 0.00 76 997.3
20260506041555 55 74 0.9 5.2 0.00 0.00 0.00 76 997.5
20260506040038 54 104 0.0 0.9 0.00 0.00 0.00 76 997.6
20260506034536 54 104 0.0 7.0 0.00 0.00 0.00 76 997.6
20260506033034 54 50 0.0 1.7 0.00 0.00 0.00 76 997.6
20260506031534 54 50 0.0 2.6 0.00 0.00 0.00 76 997.7
20260506030035 54 31 0.9 3.5 0.00 0.00 0.00 76 997.7
20260506024532 54 48 0.9 2.6 0.00 0.00 0.00 76 998.1
20260506023026 54 61 0.0 1.7 0.00 0.00 0.00 76 998.6
20260506021526 54 37 0.0 1.7 0.00 0.00 0.00 76 998.8
20260506020026 54 37 0.0 0.0 0.00 0.00 0.00 76 998.7
20260506014532 54 37 0.0 1.7 0.00 0.00 0.00 76 998.8
20260506013028 54 37 0.0 0.9 0.00 0.00 0.00 76 998.8
20260506011523 54 37 0.0 0.0 0.00 0.00 0.00 76 998.8
20260506010025 54 30 0.0 0.0 0.00 0.00 0.00 76 999.2
20260506004528 54 30 0.0 0.0 0.00 0.00 0.00 76 999.3
20260506003016 54 30 0.0 1.7 0.00 0.00 0.00 76 999.6
20260506001516 54 30 0.0 1.7 0.00 0.00 0.00 76 999.7
20260506000019 54 30 0.0 2.6 0.00 0.00 0.00 76 999.6
20260505234517 54 31 0.0 1.7 0.00 0.00 0.00 76 999.8
20260505233011 54 27 0.0 2.6 0.00 0.00 0.00 76 1000.1
20260505231510 54 34 0.0 1.7 0.00 0.00 0.00 76 1000.3
20260505230014 54 34 0.0 2.6 0.00 0.00 0.00 76 1000.1
20260505224507 54 34 0.0 1.7 0.00 0.00 0.00 76 1000.4